Location: Équennes
(49.7375°N, 1.9622°E)
Time: 00:29:10
(UTC+00:00)

Cosmos 1844 Rocket - Pass Details

Date: 28 January 2023
Orbit: 825 x 843 km, 71.0° (Epoch: 31 March)

Event Time Altitude Azimuth Distance (km) Brightness Sun altitude
Rises 19:23:41 0° 331° (NNW) 3,378 6.3 -26.3°
Reaches altitude 10° 19:26:08 10° 331° (NNW) 2,440 5.5 -26.7°
Enters shadow 19:31:37 86° 3° (N) 835 2.5 -27.6°
